Regional Weather Roundup
Issued by NWS

Home | Current Version | Previous Version | Graphics & Text | Print | Product List | Glossary On
Versions: 1 2 3 4 5 6 7 8 9 10 11 12 13 14 15 16 17 18 19 20 21 22 23 24 25 26 27 28
000
ASUS45 KPSR 092010
RWRAZ

ARIZONA HOURLY REGIONAL WEATHER ROUNDUP
NATIONAL WEATHER SERVICE PHOENIX AZ
100 PM MST FRI DEC 09 2016

NOTE: FAIR INDICATES FEW OR NO CLOUDS BELOW 12,000 FEET WITH NO
SIGNIFICANT WEATHER AND/OR OBSTRUCTIONS TO VISIBILITY.

AZZ001>003-036-092100-
NORTHWEST ARIZONA

CITY           SKY/WX    TMP DP  RH WIND       PRES   REMARKS
BULLHEAD CITY  CLOUDY    63  14  15 N16       30.24F
KINGMAN        MOSUNNY   60  37  42 W9        30.25F
$$

AZZ004>008-015-016-018-092100-
NORTH CENTRAL ARIZONA

CITY           SKY/WX    TMP DP  RH WIND       PRES   REMARKS
GRAND CANYON   MOSUNNY   45  36  70 SW8       30.30F
WILLIAMS       SUNNY     52  34  50 VRB5      30.29F
PRESCOTT       MOSUNNY   54  33  45 NE6       30.27F
FLAGSTAFF      SUNNY     48  34  58 S8        30.29F
PAYSON         SUNNY     54  32  43 VRB5      30.30F
PAGE           MOSUNNY   44  11  26 NW6       30.29F
$$

AZZ009>014-017-092100-
NORTHEAST ARIZONA

CITY           SKY/WX    TMP DP  RH WIND       PRES   REMARKS
WINSLOW        SUNNY     53  30  41 E5        30.27F
SAINT JOHNS    SUNNY     56  27  32 VRB5      30.26F
WINDOW ROCK    MOSUNNY   52  30  43 S6        30.29F
SHOW LOW       SUNNY     54  28  37 W10       30.29F
$$

AZZ023-092100-
GREATER PHOENIX AREA

CITY           SKY/WX    TMP DP  RH WIND       PRES   REMARKS
PHOENIX        MOSUNNY   68  36  30 E7        30.18F
BUCKEYE        SUNNY     66  37  34 E9        30.20F
GLENDALE       MOSUNNY   64  39  39 CALM      30.22F
LUKE AFB       SUNNY     66  38  36 CALM      30.18F
DEER VALLEY    SUNNY     65  38  36 SW3       30.19F
SCOTTSDALE     SUNNY     66  36  32 VRB3      30.20F
MESA-FALCON    SUNNY    N/A N/A N/A N7        30.17
MESA-GATEWAY   MOSUNNY   64  37  36 CALM      30.21F
CHANDLER       MOSUNNY   64  39  39 W6        30.20F
$$

AZZ027-028-092100-
SOUTHWEST MARICOPA COUNTY AND PINAL COUNTY

CITY           SKY/WX    TMP DP  RH WIND       PRES   REMARKS
CASA GRANDE    NOT AVBL
GILA BEND      SUNNY     68  39  34 N12       30.17F
$$

AZZ503-504-507>509-092100-
SOUTHEAST ARIZONA

CITY           SKY/WX    TMP DP  RH WIND       PRES   REMARKS
TUCSON         SUNNY     69  34  27 NE6       30.21F
DAVIS-MONTHAN  SUNNY     66  34  29 N5        30.19F
NOGALES        SUNNY     71  31  22 CALM      30.19F
SIERRA VISTA   SUNNY     64  30  27 SE6       30.25F
DOUGLAS        SUNNY     59  34  39 VRB3      30.25F
SAFFORD        SUNNY     56  31  38 SE7       30.27F
$$

AZZ020-021-025-026-031-092100-
SOUTHWEST ARIZONA

CITY           SKY/WX    TMP DP  RH WIND       PRES   REMARKS
YUMA           PTSUNNY   69  22  16 N8        30.19F
$$

CAZ031-033-041-043-047-048-061-092100-
SOUTHERN CALIFORNIA

CITY           SKY/WX    TMP DP  RH WIND       PRES   REMARKS
DOWNTOWN L.A.  PTSUNNY   63  51  65 CALM      30.23F
L.A. AIRPORT   PTSUNNY   62  52  69 SE5       30.23F
SAN DIEGO      PTSUNNY   63  53  70 NW12      30.24F
BURBANK        MOSUNNY   60  48  64 S5        30.22F
ONTARIO        CLOUDY    60  43  53 SW3       30.23F HAZE
RIVERSIDE      CLOUDY    62  46  55 W5        30.23F
PALM SPRINGS   MOSUNNY   67  36  31 VRB3      30.20F
EL CENTRO NAS  PTSUNNY   68  27  21 N3        30.21F
IMPERIAL       PTSUNNY   67  27  22 N3        30.20F
BLYTHE         MOSUNNY   63  16  16 CALM      30.22F
NEEDLES        PTSUNNY   64  16  15 NE6       30.24F
$$

NVZ020-UTZ003-092100-
SOUTHERN NEVADA-UTAH

CITY           SKY/WX    TMP DP  RH WIND       PRES   REMARKS
LAS VEGAS      CLOUDY    53  10  18 NE3       30.27F
SALT LAKE CITY CLOUDY    40  31  70 NW3       30.18F
$$

NMZ009-TXZ055-092100-
NEW MEXICO-WEST TEXAS

CITY           SKY/WX    TMP DP  RH WIND       PRES   REMARKS
ALBUQUERQUE    MOSUNNY   41  27  57 SW6       30.32F
EL PASO        PTSUNNY   41  30  65 VRB3      30.36F
$$


........................KEY........................
SKY/WX - SKY CONDITION/WEATHER
TMP    - TEMPERATURE IN FAHRENHEIT
DP     - DEW POINT IN FAHRENHEIT
RH     - RELATIVE HUMIDITY IN PERCENT
WIND   - DIRECTION AND SPEED IN MILES PER HOUR (MPH)
VRB    - VARIABLE WIND DIRECTION
PRES   - MEAN SEA LEVEL PRESSURE IN INCHES OF MERCURY
         F - FALLING PRESSURE   R - RISING PRESSURE
         S - STEADY PRESSURE
VSB    - VISIBILITY IN MILES
HX     - HEAT INDEX IN FAHRENHEIT
WCI    - WIND CHILL INDEX IN FAHRENHEIT
TC     - TEMPERATURE IN CELSIUS WHICH IS ALSO KNOWN AS
         TEMPERATURE IN CENTIGRADE
AFB    - AIR FORCE BASE
         LUKE AFB IS LUKE AIR FORCE BASE
         DAVIS-MONTHAN IS DAVIS-MONTHAN AIR FORCE BASE
NAS    - NAVAL AIR STATION
         EL CENTRO NAS IS EL CENTRO NAVAL AIR STATION
N/A    - NOT AVAILABLE





USA.gov is the U.S. government's official web portal to all federal, state and local government web resources and services.